• In Portugal
  • List of Countries
  • For 7 days
  • Water Temperature
  • Satellite Maps
  • Weather Map
  • Weather Widgets
  • user-avatar
    Login

    Hourly Weather Meshhed

    Today, 22 January, Monday

    Time Temperature Precipitation Wind Pressure Humidity
    00:00 0°C° 0 mm 1 mps 611 mmHg 70%
    01:00 -1°C° 0 mm 1 mps 611 mmHg 72%
    02:00 -1°C° 0 mm 1 mps 611 mmHg 72%
    03:00 -1°C° 0 mm 1 mps 611 mmHg 72%
    04:00 -1°C° 0 mm 1 mps 611 mmHg 72%
    05:00 -1°C° 0 mm 1 mps 611 mmHg 71%
    06:00 -1°C° 0 mm 1 mps 611 mmHg 71%
    07:00 -2°C° 0 mm 1 mps 611 mmHg 71%
    08:00 0°C° 0 mm 1 mps 612 mmHg 62%
    09:00 +2°C° 0 mm 1 mps 613 mmHg 54%
    10:00 +4°C° 0 mm 1 mps 614 mmHg 46%
    11:00 +4°C° 0 mm 1 mps 614 mmHg 42%
    12:00 +5°C° 0 mm 1 mps 614 mmHg 37%
    13:00 +6°C° 0 mm 1 mps 613 mmHg 33%
    14:00 +7°C° 0 mm 1 mps 613 mmHg 32%
    15:00 +7°C° 0 mm 1 mps 613 mmHg 31%
    16:00 +7°C° 0 mm 1 mps 613 mmHg 31%
    17:00 +6°C° 0 mm 1 mps 612 mmHg 34%
    18:00 +4°C° 0 mm 1 mps 612 mmHg 38%
    19:00 +3°C° 0 mm 1 mps 612 mmHg 42%
    20:00 +3°C° 0 mm 1 mps 611 mmHg 43%
    21:00 +2°C° 0 mm 1 mps 611 mmHg 44%
    22:00 +2°C° 0 mm 1 mps 611 mmHg 45%
    23:00 +2°C° 0 mm 1 mps 610 mmHg 45%

    Tomorrow, 23 January, Tuesday

    Time Temperature Precipitation Wind Pressure Humidity
    00:00 +2°C° 0 mm 1 mps 610 mmHg 45%
    01:00 -1°C° 0 mm 2 mps 609 mmHg 45%
    02:00 -1°C° 0 mm 2 mps 609 mmHg 45%
    03:00 +1°C° 0 mm 2 mps 609 mmHg 45%
    04:00 +1°C° 0 mm 2 mps 608 mmHg 44%
    05:00 0°C° 0 mm 3 mps 608 mmHg 44%
    06:00 0°C° 0 mm 3 mps 608 mmHg 43%
    07:00 0°C° 0 mm 3 mps 608 mmHg 43%
    08:00 +2°C° 0 mm 3 mps 609 mmHg 37%
    09:00 +4°C° 0 mm 4 mps 609 mmHg 31%
    10:00 +6°C° 0 mm 4 mps 610 mmHg 25%
    11:00 +7°C° 0 mm 5 mps 610 mmHg 22%
    12:00 +8°C° 0 mm 5 mps 610 mmHg 19%
    13:00 +9°C° 0 mm 5 mps 610 mmHg 16%
    14:00 +9°C° 0 mm 5 mps 610 mmHg 16%
    15:00 +9°C° 0 mm 5 mps 610 mmHg 17%
    16:00 +8°C° 0 mm 5 mps 610 mmHg 17%
    17:00 +7°C° 0 mm 4 mps 609 mmHg 20%
    18:00 +5°C° 0 mm 4 mps 609 mmHg 23%
    19:00 +4°C° 0 mm 3 mps 608 mmHg 26%
    20:00 +3°C° 0 mm 3 mps 608 mmHg 26%
    21:00 +3°C° 0 mm 3 mps 608 mmHg 27%
    22:00 +2°C° 0 mm 3 mps 608 mmHg 28%
    23:00 +3°C° 0 mm 2 mps 608 mmHg 29%

    Day after tomorrow, 24 January, Wednesday

    Time Temperature Precipitation Wind Pressure Humidity
    00:00 +3°C° 0 mm 2 mps 608 mmHg 29%
    01:00 +2°C° 0 mm 2 mps 608 mmHg 29%
    02:00 +2°C° 0 mm 2 mps 608 mmHg 30%
    03:00 +2°C° 0 mm 2 mps 607 mmHg 30%
    04:00 +1°C° 0 mm 2 mps 607 mmHg 31%
    05:00 +1°C° 0 mm 2 mps 607 mmHg 32%
    06:00 +1°C° 0 mm 2 mps 607 mmHg 32%
    07:00 -1°C° 0 mm 2 mps 607 mmHg 33%
    08:00 +4°C° 0 mm 1 mps 608 mmHg 29%
    09:00 +6°C° 0 mm 1 mps 610 mmHg 25%
    10:00 +8°C° 0 mm 1 mps 611 mmHg 21%
    11:00 +7°C° 0 mm 2 mps 611 mmHg 21%
    12:00 +8°C° 0 mm 2 mps 611 mmHg 20%
    13:00 +9°C° 0 mm 3 mps 611 mmHg 20%
    14:00 +9°C° 0 mm 3 mps 611 mmHg 20%
    15:00 +9°C° 0 mm 3 mps 611 mmHg 21%
    16:00 +9°C° 0 mm 3 mps 611 mmHg 22%
    17:00 +7°C° 0 mm 2 mps 611 mmHg 25%
    18:00 +6°C° 0 mm 2 mps 611 mmHg 28%
    19:00 +5°C° 0 mm 1 mps 610 mmHg 32%
    20:00 +5°C° 0 mm 1 mps 610 mmHg 33%
    21:00 +4°C° 0 mm 1 mps 610 mmHg 34%
    22:00 +3°C° 0 mm 1 mps 610 mmHg 36%
    23:00 +3°C° 0 mm 1 mps 610 mmHg 37%

    25 January, Thursday

    Time Temperature Precipitation Wind Pressure Humidity
    00:00 +2°C° 0 mm 1 mps 610 mmHg 38%
    01:00 +2°C° 0 mm 1 mps 610 mmHg 39%
    02:00 +1°C° 0 mm 1 mps 611 mmHg 40%
    03:00 +1°C° 0 mm 1 mps 611 mmHg 41%
    04:00 +1°C° 0 mm 1 mps 611 mmHg 42%
    05:00 0°C° 0 mm 1 mps 611 mmHg 43%
    06:00 0°C° 0 mm 1 mps 611 mmHg 44%
    07:00 0°C° 0 mm 1 mps 611 mmHg 44%
    08:00 +1°C° 0 mm 1 mps 613 mmHg 39%
    09:00 +3°C° 0 mm 1 mps 614 mmHg 35%
    10:00 +5°C° 0 mm 1 mps 615 mmHg 30%
    11:00 +6°C° 0 mm 1 mps 615 mmHg 29%
    12:00 +5°C° 0 mm 2 mps 615 mmHg 27%
    13:00 +6°C° 0 mm 2 mps 615 mmHg 26%
    14:00 +6°C° 0 mm 2 mps 615 mmHg 26%
    15:00 +6°C° 0 mm 2 mps 614 mmHg 26%
    16:00 +6°C° 0 mm 2 mps 614 mmHg 26%
    17:00 +4°C° 0 mm 3 mps 614 mmHg 30%
    18:00 +3°C° 0 mm 3 mps 614 mmHg 33%
    19:00 +2°C° 0 mm 3 mps 614 mmHg 36%
    20:00 +2°C° 0 mm 2 mps 614 mmHg 39%
    21:00 +2°C° 0 mm 2 mps 614 mmHg 41%
    22:00 +1°C° 0 mm 2 mps 614 mmHg 43%
    23:00 -1°C° 0 mm 2 mps 613 mmHg 45%

    26 January, Friday

    Time Temperature Precipitation Wind Pressure Humidity
    00:00 -1°C° 0 mm 2 mps 613 mmHg 47%
    01:00 +1°C° 0 mm 1 mps 613 mmHg 48%
    02:00 0°C° 0 mm 1 mps 613 mmHg 49%
    03:00 0°C° 0 mm 1 mps 613 mmHg 50%
    04:00 -1°C° 0 mm 1 mps 612 mmHg 51%
    05:00 -1°C° 0 mm 1 mps 612 mmHg 51%
    06:00 -1°C° 0 mm 1 mps 613 mmHg 52%
    07:00 -1°C° 0 mm 1 mps 613 mmHg 52%
    08:00 -1°C° 0 mm 2 mps 613 mmHg 46%
    09:00 +1°C° 0 mm 2 mps 614 mmHg 41%
    10:00 +3°C° 0 mm 2 mps 615 mmHg 36%
    11:00 +4°C° 0 mm 2 mps 615 mmHg 33%
    12:00 +5°C° 0 mm 2 mps 614 mmHg 30%
    13:00 +6°C° 0 mm 2 mps 614 mmHg 27%
    14:00 +6°C° 0 mm 2 mps 614 mmHg 27%
    15:00 +5°C° 0 mm 3 mps 614 mmHg 26%
    16:00 +5°C° 0 mm 3 mps 613 mmHg 26%
    17:00 +4°C° 0 mm 3 mps 613 mmHg 30%
    18:00 +3°C° 0 mm 3 mps 613 mmHg 34%
    19:00 +2°C° 0 mm 3 mps 612 mmHg 38%
    20:00 +1°C° 0 mm 3 mps 612 mmHg 40%
    21:00 +2°C° 0 mm 2 mps 612 mmHg 42%
    22:00 +1°C° 0 mm 2 mps 612 mmHg 45%
    23:00 +1°C° 0 mm 2 mps 611 mmHg 46%

    27 January, Saturday

    Time Temperature Precipitation Wind Pressure Humidity
    00:00 -1°C° 0 mm 2 mps 611 mmHg 48%
    01:00 -1°C° 0 mm 2 mps 610 mmHg 49%
    02:00 -1°C° 0 mm 2 mps 610 mmHg 48%
    03:00 -1°C° 0 mm 2 mps 610 mmHg 47%
    04:00 -1°C° 0 mm 2 mps 610 mmHg 46%
    05:00 -1°C° 0 mm 2 mps 610 mmHg 47%
    06:00 -1°C° 0 mm 2 mps 610 mmHg 47%
    07:00 -2°C° 0 mm 2 mps 609 mmHg 48%
    08:00 +1°C° 0 mm 2 mps 610 mmHg 43%
    09:00 +2°C° 0 mm 3 mps 611 mmHg 38%
    10:00 +3°C° 0 mm 3 mps 611 mmHg 33%
    11:00 +3°C° 0 mm 4 mps 611 mmHg 32%
    12:00 +4°C° 0 mm 4 mps 611 mmHg 32%
    13:00 +4°C° 0 mm 4 mps 610 mmHg 32%
    14:00 +4°C° 0.1 mm 4 mps 610 mmHg 34%
    15:00 +4°C° 0.1 mm 4 mps 610 mmHg 36%
    16:00 +3°C° 0.1 mm 4 mps 609 mmHg 38%
    17:00 +1°C° 0 mm 4 mps 609 mmHg 41%
    18:00 +1°C° 0 mm 4 mps 609 mmHg 43%
    19:00 0°C° 0 mm 4 mps 609 mmHg 46%
    20:00 -1°C° 0 mm 4 mps 609 mmHg 48%
    21:00 -2°C° 0 mm 4 mps 609 mmHg 51%
    22:00 -2°C° 0 mm 4 mps 609 mmHg 53%
    23:00 -3°C° 0 mm 4 mps 609 mmHg 55%
    Show more